Powrót do katalogu

STARLINK-32693

AktywnyŁącznośćVLEO
NORAD 62437·PAYLOAD·🇺🇸 United States

Wystrzelony Dec 29, 2024 z Vandenberg Space Force Base

Loading…

Następne Przeloty (najbliższe 24 godziny)

TLE

ŚwieżeSource: CelesTrak SupGP

Epoka: Sep 15, 2026, 02:23 UTC

1 62437C 24251F   26258.09979167 -.00064697  00000+0 -19115-2 0  2587
2 62437  53.1577 170.6451 0001299  91.1155 338.5185 15.34423237    17

Śledź STARLINK-32693 w czasie rzeczywistym z AllMySat

Download on the App Store